TimePDT,TemperatureF,Dew PointF,Humidity,Sea Level PressureIn,VisibilityMPH,Wind Direction,Wind SpeedMPH,Gust SpeedMPH,PrecipitationIn,Events,Conditions,WindDirDegrees,DateUTC
12:53 AM,69.1,44.1,40,29.96,10.0,Calm,Calm,-,N/A,,Clear,0,2013-07-17 07:53:00
1:53 AM,66.0,46.9,50,29.96,10.0,Calm,Calm,-,N/A,,Clear,0,2013-07-17 08:53:00
2:53 AM,64.9,48.9,56,29.95,10.0,Calm,Calm,-,N/A,,Clear,0,2013-07-17 09:53:00
3:53 AM,63.0,50.0,63,29.94,10.0,Calm,Calm,-,N/A,,Clear,0,2013-07-17 10:53:00
4:53 AM,61.0,50.0,67,29.95,10.0,Calm,Calm,-,N/A,,Clear,0,2013-07-17 11:53:00
5:53 AM,61.0,48.9,64,29.96,10.0,Calm,Calm,-,N/A,,Clear,0,2013-07-17 12:53:00
6:53 AM,61.0,48.0,62,29.98,10.0,Calm,Calm,-,N/A,,Scattered Clouds,0,2013-07-17 13:53:00
7:53 AM,68.0,48.9,50,29.98,10.0,Calm,Calm,-,N/A,,Scattered Clouds,0,2013-07-17 14:53:00
8:53 AM,75.0,50.0,41,29.99,10.0,Calm,Calm,-,N/A,,Scattered Clouds,0,2013-07-17 15:53:00
9:53 AM,80.1,43.0,27,29.97,10.0,Calm,Calm,-,N/A,,Scattered Clouds,0,2013-07-17 16:53:00
10:53 AM,84.9,37.9,19,29.96,10.0,Calm,Calm,-,N/A,,Scattered Clouds,0,2013-07-17 17:53:00
11:53 AM,89.1,30.9,12,29.96,10.0,Calm,Calm,-,N/A,,Partly Cloudy,0,2013-07-17 18:53:00
12:53 PM,93.0,28.0,10,29.95,10.0,Variable,4.6,-,N/A,,Clear,0,2013-07-17 19:53:00
1:53 PM,95.0,37.0,13,29.93,10.0,Variable,6.9,18.4,N/A,,Clear,0,2013-07-17 20:53:00
2:53 PM,95.0,41.0,15,29.92,10.0,West,10.4,19.6,N/A,,Clear,270,2013-07-17 21:53:00
3:53 PM,93.9,45.0,18,29.91,10.0,West,12.7,18.4,N/A,,Clear,260,2013-07-17 22:53:00
4:53 PM,91.9,45.0,20,29.90,10.0,West,11.5,18.4,N/A,,Clear,270,2013-07-17 23:53:00
5:53 PM,90.0,44.1,20,29.89,10.0,West,15.0,21.9,N/A,,Clear,260,2013-07-18 00:53:00
6:34 PM,87.8,32.0,14,29.95,10.0,West,13.8,19.6,N/A,,Partly Cloudy,260,2013-07-18 01:34:00
6:53 PM,87.1,34.0,15,29.91,10.0,West,10.4,-,N/A,,Clear,260,2013-07-18 01:53:00
7:53 PM,82.0,34.0,18,29.92,10.0,West,9.2,-,N/A,,Clear,260,2013-07-18 02:53:00
8:53 PM,79.0,32.0,18,29.94,10.0,West,3.5,-,N/A,,Clear,280,2013-07-18 03:53:00
9:53 PM,77.0,34.0,21,29.95,10.0,Calm,Calm,-,N/A,,Clear,0,2013-07-18 04:53:00
10:53 PM,75.0,42.1,31,29.96,10.0,NW,3.5,-,N/A,,Clear,310,2013-07-18 05:53:00
11:53 PM,72.0,43.0,35,29.95,10.0,Calm,Calm,-,N/A,,Clear,0,2013-07-18 06:53:00